Regional Weather Roundup
Issued by NWS

Home | Current Version | Previous Version | Text Only | Print | Product List | Glossary On
Versions: 1 2 3 4 5 6 7 8 9 10 11 12 13 14 15 16 17 18 19 20 21 22 23 24 25 26 27 28 29 30 31 32 33 34 35 36 37 38 39 40 41 42 43 44 45 46 47 48 49 50
000
ASUS42 KTBW 180710
RWRFL
FLORIDA REGIONAL WEATHER ROUNDUP
NATIONAL WEATHER SERVICE TAMPA BAY RUSKIN FL
300 AM EDT THU SEP 18 2014

NOTE: "FAIR" INDICATES FEW OR NO CLOUDS BELOW 12,000 FEET WITH NO
SIGNIFICANT WEATHER AND/OR OBSTRUCTIONS TO VISIBILITY.


FLZ001>010-012>015-112-114-115-180800-
PANHANDLE FLORIDA

CITY           SKY/WX    TMP DP  RH WIND       PRES   REMARKS
PENSACOLA      CLEAR     74  72  93 NW3       29.89F
PENSACOLA NAS  CLEAR     72  71  97 CALM      29.89F
MILTON NAS     MOCLDY    72  69  90 CALM      29.90F
CRESTVIEW      MOCLDY    71  70  96 CALM      29.91F
DUKE FIELD     CLOUDY    73  73 100 CALM      29.91S
VALPARAISO     PTCLDY    75  71  87 CALM      29.90S
MARY ESTHER    PTCLDY    74  69  82 N3        29.89S
TRI COUNTY     FAIR      71  70  96 CALM      29.91F
PANAMA CITY    FAIR      73  70  90 CALM      29.89S
TYNDALL AFB    CLEAR     73  72  99 S1        29.89F
APALACHICOLA   CLEAR     75  71  87 CALM      29.89F

STATION/POSITION SKY/WX   TEMP    WIND        PRES    WAVE   SWELL
                          AIR SEA DIR/SP/G            HT/PER HT/PER
                          (F)     (DEG/KT/KT) (MB)    (FT/S) (FT/S)
30.1N   87.6W              83 85  280/  6/  6 1012.2F   1/ 7
29.2N   88.2W              82 85  290/  4/  4 1012.8F   1/ 6   2/ 6
28.8N   86.0W              81 85   30/  2/  4 1012.1F   1/ 6   2/ 6
PANAMA CITY BEAC           80 87  130/  1/  2 1012.0F
CAPE SAN BLAS    NOT AVBL
TOWER C                    81     310/  5/  6 1012.2F
28.5N   84.5W              81 85  340/  2/  4 1012.4F   2/ 5   2/ 5

$$
FLZ011-016>038-118-127-128-134-139-239-180800-
NORTH FLORIDA

CITY           SKY/WX    TMP DP  RH WIND       PRES   REMARKS
MARIANNA       CLEAR     72  72 100 CALM      29.89F
TALLAHASSEE    PTCLDY    72  70  93 CALM      29.89F
PERRY          CLEAR     72  72 100 CALM      29.90S
CROSS CITY       N/A     72  70  93 CALM      29.89F
LAKE CITY      FAIR      70  70 100 CALM      29.89F FOG
GAINESVILLE    CLEAR     70  70 100 CALM      29.90F
MAYPORT NAS    PTCLDY    75  73  93 SW3       29.88F
JACKSONVILLE   PTCLDY    73  73 100 CALM      29.88S
JAX NAS        PTCLDY    78  71  79 W3        29.89F
JAX CRAIG      CLEAR     75  72  90 CALM      29.88F
JAX CECIL      CLEAR     72  70  94 CALM      29.88F FOG
ST AUGUSTINE   CLEAR     74  71  91 SW5       29.89F

STATION/POSITION SKY/WX   TEMP    WIND        PRES    WAVE   SWELL
                          AIR SEA DIR/SP/G            HT/PER HT/PER
                          (F)     (DEG/KT/KT) (MB)    (FT/S) (FT/S)
SHELL POINT                79     290/  4/  5   N/A
KEATON BEACH               79     310/  1/  3 1012.1F
CEDAR KEY                  80     320/  2/  3 1013.1F
FERNANDINA                 78 85  220/  5/  7 1011.4F
30.7N   81.3W                 84                N/A     3/13   2/13
MAYPORT                    76 84  220/  4/  7   N/A
31.4N   80.9W              78 84  220/ 10/ 12 1011.8F   3/11   2/11
ST AUGUSTINE               74     250/  3/  4 1012.6F

$$
FLZ040-043>046-052-053-057-058-063-144-180800-
INTERIOR CENTRAL FLORIDA

CITY           SKY/WX    TMP DP  RH WIND       PRES   REMARKS
OCALA          CLEAR     70  70 100 CALM      29.90F
THE VILLAGES     N/A     73  73 100 CALM      29.81S FOG
LEESBURG       CLEAR     75  72  90 CALM      29.91F
SANFORD        CLEAR     74  72  93 W5        29.89F
ORLANDO EXEC   CLEAR     76  73  91 W3        29.90F
ORLANDO INTL   PTCLDY    71  71 100 S7        29.90F
WINTER HAVEN   FOG       73  73 100 W3        29.92F VSB 1/4
LAKELAND       FOG      N/A N/A N/A CALM      29.91S VSB<1/4
BARTOW         FOG       72 N/A N/A CALM      29.92S VSB 1/4
OKEECHOBEE       N/A     70  70 100 MISG        N/A

$$
FLZ041-047-054-059-064-141-147-180800-
EAST CENTRAL FLORIDA

CITY           SKY/WX    TMP DP  RH WIND       PRES   REMARKS
DAYTONA BEACH  CLEAR     71  70  96 SW3       29.89F
DELAND         SUNNY     72  70  94 CALM      29.90F
JFK SPACE CTR  CLEAR     74  72  93 W2        29.88F
CAPE CANAVERAL CLEAR     75  73  94 W6        29.88F
PATRICK AFB    MOCLDY    75  73  94 W8        29.89F
MELBOURNE      CLEAR     74  72  93 SW6       29.89F
VERO BEACH     PTCLDY    71  70  96 W6        29.89F
FT PIERCE      CLEAR     73  70  90 W6        29.89F
STUART         PTCLDY    72  72 100 SW7       29.90F

STATION/POSITION SKY/WX   TEMP    WIND        PRES    WAVE   SWELL
                          AIR SEA DIR/SP/G            HT/PER HT/PER
                          (F)     (DEG/KT/KT) (MB)    (FT/S) (FT/S)
28.5N   80.2W              79 85  280/ 10/ 10 1012.4R
28.9N   78.5W              80 85  360/  6/  8 1011.5F   5/12   5/12
TRIDENT PIER               76 85  230/  7/  9 1011.7F
28.4N   80.5W                 84                N/A     3/13   2/13
27.6N   80.2W                 83                N/A     3/13   3/13

$$
FLZ050-056-061-142-242-148-248-149-249-151-251-155-255-
160-260-180800-
WEST CENTRAL FLORIDA

CITY           SKY/WX    TMP DP  RH WIND       PRES   REMARKS
CRYSTAL RIVER  FAIR      70  70 100 CALM      29.90F
INVERNESS      FAIR      72  63  73 CALM      29.91S HAZE
BROOKSVILLE    CLEAR     72  71  97 CALM      29.91F
ZEPHYRHILLS    FOG       63  63 100 CALM      29.92F VSB 3/4
CLEARWATER     CLEAR     74  72  93 CALM      29.90F
TAMPA INTL     PTCLDY    73  71  93 CALM      29.90F
TAMPA EXEC     FOG       73  70  88 CALM      29.91F VSB 1/4
PLANT CITY     FOG       73 N/A N/A CALM      29.92F VSB 1/2
MACDILL AFB    FOG       72  72 100 CALM      29.90S VSB 1
ST PETERSBURG  CLEAR     76  73  91 N5        29.88F
SARASOTA       CLEAR     72  71  97 E3        29.88F
VENICE           N/A    N/A N/A N/A MISG        N/A

STATION/POSITION SKY/WX   TEMP    WIND        PRES    WAVE   SWELL
                          AIR SEA DIR/SP/G            HT/PER HT/PER
                          (F)     (DEG/KT/KT) (MB)    (FT/S) (FT/S)
CEDAR KEY                  80     320/  2/  3 1013.1F
28.5N   84.5W              81 85  340/  2/  4 1012.4F   2/ 5   2/ 5
27.3N   84.3W                 85                N/A     2/ 5
CLEARWATER BEACH NOT AVBL
MIDDLE TAMPA BAY           77     120/  4/  4 1012.5F
VENICE                     75 84  100/  5/  5 1011.9F

$$
FLZ066-069-070-075>078-162-262-165-265-180800-
SOUTHWEST FLORIDA AND KEYS

CITY           SKY/WX    TMP DP  RH WIND       PRES   REMARKS
PUNTA GORDA    PTCLDY    75  73  93 S5        29.91F
FT MYERS       PTCLDY    75  74  96 CALM      29.89F
SOUTHWEST INTL PTCLDY    74  69  85 SW3       29.90F
NAPLES         CLOUDY    76  73  91 S3        29.90F
MARCO ISLAND   MOSUNNY   75  72  88 CALM      29.91S
MARATHON       CLOUDY    77  77 100 CALM      29.91F
KEY WEST NAS   CLOUDY    79  75  87 CALM      29.90F
KEY WEST INTL  CLOUDY    81  73  76 CALM      29.91F

STATION/POSITION SKY/WX   TEMP    WIND        PRES    WAVE   SWELL
                          AIR SEA DIR/SP/G            HT/PER HT/PER
                          (F)     (DEG/KT/KT) (MB)    (FT/S) (FT/S)
VENICE                     75 84  100/  5/  5 1011.9F
NAPLES                     76 88   80/  3/  6 1013.0F
DRY TORTUGAS               83      CALM  /  2 1012.6F
NW FL BAY                  82      30/  6/  7 1013.9F
SAND KEY                   82     130/  2/  6 1012.9F
SOMBRERO KEY               82     230/  7/  9 1013.6F
LONG KEY                   82 86   20/  3/  4 1014.3F
MOLASSES REEF              81 85   90/  2/  2 1012.6F

$$
FLZ067-068-071>074-168-172>174-180800-
SOUTHEAST FLORIDA

CITY           SKY/WX    TMP DP  RH WIND       PRES   REMARKS
W PALM BEACH   PTCLDY    75  72  90 W5        29.89F
FT LAUDER-EXEC MOCLDY    77  74  90 SW7       29.89F
FT LAUDERDALE  MOCLDY    79  71  76 W6        29.90F
POMPANO BEACH  PTCLDY    79  71  76 SW5       29.90F
PEMBROKE PINES CLOUDY    78  72  81 W3        29.91F
OPA LOCKA      MOCLDY    78  71  79 SW5       29.90F
MIAMI          CLOUDY    77  71  82 S5        29.91F
WEST KENDALL   MOCLDY    77  72  84 S3        29.91F
HOMESTEAD      MOCLDY    74  72  94 S2        29.91F

STATION/POSITION SKY/WX   TEMP    WIND        PRES    WAVE   SWELL
                          AIR SEA DIR/SP/G            HT/PER HT/PER
                          (F)     (DEG/KT/KT) (MB)    (FT/S) (FT/S)
PORT EVERGLADES            79     220/  5/  8 1012.5
VIRGINIA KEY               80 86  200/  4/  5   N/A
LAKE WORTH                 77 85  250/  5/  6 1012.0S
FOWEY ROCKS                80 85  170/ 12/ 14 1012.7F
SETTLEMENT POINT           81     240/  9/ 11 1012.9F

$$




USA.gov is the U.S. government's official web portal to all federal, state and local government web resources and services.